Location: Hurecourt
(47.9030°N, 6.0653°E)
Time: 08:42:34
(UTC+00:00)

DELTA 2 DEB (DPAF) - Pass Details

Date: 14 July 2020
Orbit: 641 x 647 km, 98.3° (Epoch: 14 August)

Event Time Altitude Azimuth Distance (km) Brightness Sun altitude
Exits shadow 00:46:51 30° 150° (SSE) 1,167 5.1 -18.9°
Maximum altitude 00:49:01 70° 73° (ENE) 689 4.3 -18.8°
Drops below altitude 10° 00:53:28 10° 350° (N) 2,054 7.7 -18.6°
Sets 00:55:42 0° 348° (NNW) 2,968 8.6 -18.5°
